"Pseudo-MPEC" for P22aAqd

Created 2025 Jun 12 0:31:02 UT using Find_Orb

Click here for an explanation of pseudo-MPECs

 
 Astrometry: 
     P22aAqd* C2025 05 30.53907121 12 56.641+02 22 08.14   ~5UKl 21.61wXNEOCPF52
     P22aAqd  C2025 05 30.55118621 12 57.693+02 21 51.31   ~5UKl 21.98wXNEOCPF52
     P22aAqd  C2025 05 30.56325121 12 58.733+02 21 34.69   ~5UKl 22.80wXNEOCPF52

Station data:
(F52) Pan-STARRS 2, Haleakala  (N20.707382 W156.255910)  US/Hawaii.
   Observers J. Bulger, T. Dukes, T. Lowe, A. Schultz, M. Willman. Measurers
   K. Chambers, S. Chastel, T. de Boer, L. Denneau, J. Fairlamb, H.
   Flewelling, M. Huber, C.-C. Lin, E. Magnier, Y. Ramanjooloo, R. Wainscoat,
   R. Weryk. 1.8-m Ritchey-Chrétien + CCD.

Orbital elements:  P22aAqd
   Perihelion 2025 Aug 11.30021 +/- 62.9 TT =  7:12:17 (JD 2460898.80021)
Epoch 2025 May 31.0 TT = JDT 2460826.5   Earth MOID: 0.0577   Me: 0.0110
M 281.07984299 +/- 60               (J2000 ecliptic)             AutoNEOCP
n   1.09156197 +/- 0.77             Peri.  324.74749 +/- 80
a   0.93419409 +/- 0.44             Node    90.11196 +/- 24
e   0.7126676 +/- 0.233             Incl.   80.34119 +/- 39
P   0.903/329.796d         H 21.32  G  0.15   U 12.6  SR
q 0.26842416 +/- 0.479    Q 1.59996402 +/- 22.5
From 3 observations 2025 May 30 (34.8 min); mean residual 0".03
Residuals in arcseconds: 
250530 F52  .01-  .03+    250530 F52  .02+  .06-    250530 F52  .03-  .02+    

Ephemerides (geocentric):
Date (UTC) HH   RA             Dec           delta  r     elong  mag " sig PA
---- --------  ------------   ------------  ------ ------ -----  --- --------
2025 06 12 01  21 51 17.454   -10 11 57.31  .19172 1.1086 114.5 20.0  70d  88
2025 06 12 02  21 51 34.690   -10 18 02.48  .19089 1.1081 114.5 20.0  70d  88
2025 06 12 03  21 51 52.082   -10 24 10.84  .19005 1.1077 114.5 20.0  70d  88
2025 06 12 04  21 52 09.632   -10 30 22.44  .18922 1.1073 114.5 20.0  70d  88
2025 06 12 05  21 52 27.343   -10 36 37.31  .18838 1.1068 114.5 20.0  70d  88
2025 06 12 06  21 52 45.216   -10 42 55.48  .18755 1.1064 114.5 20.0  70d  88
2025 06 12 07  21 53 03.254   -10 49 17.01  .18672 1.1060 114.5 19.9  70d  88
2025 06 12 08  21 53 21.460   -10 55 41.92  .18588 1.1056 114.5 19.9  70d  88
2025 06 12 09  21 53 39.835   -11 02 10.26  .18505 1.1051 114.5 19.9  70d  88
2025 06 12 10  21 53 58.382   -11 08 42.07  .18422 1.1047 114.5 19.9  70d  88
2025 06 12 11  21 54 17.104   -11 15 17.39  .18339 1.1043 114.5 19.9  70d  88
2025 06 12 12  21 54 36.004   -11 21 56.26  .18257 1.1038 114.5 19.9  70d  88
2025 06 12 13  21 54 55.083   -11 28 38.72  .18174 1.1034 114.6 19.9  70d  88
2025 06 12 14  21 55 14.344   -11 35 24.82  .18092 1.1030 114.6 19.9  70d  88
2025 06 12 15  21 55 33.791   -11 42 14.59  .18009 1.1025 114.6 19.9  70d  88
2025 06 12 16  21 55 53.426   -11 49 08.09  .17927 1.1021 114.6 19.9  70d  88
2025 06 12 17  21 56 13.251   -11 56 05.36  .17844 1.1017 114.6 19.9  70d  88
2025 06 12 18  21 56 33.270   -12 03 06.44  .17762 1.1012 114.6 19.8  70d  89
2025 06 12 19  21 56 53.485   -12 10 11.37  .17680 1.1008 114.6 19.8  70d  89
2025 06 12 20  21 57 13.900   -12 17 20.21  .17598 1.1004 114.6 19.8  70d  89
2025 06 12 21  21 57 34.517   -12 24 33.00  .17517 1.0999 114.6 19.8  70d  89
2025 06 12 22  21 57 55.339   -12 31 49.79  .17435 1.0995 114.6 19.8  70d  89
2025 06 12 23  21 58 16.371   -12 39 10.63  .17353 1.0991 114.6 19.8  70d  89
2025 06 13 00  21 58 37.614   -12 46 35.56  .17272 1.0986 114.6 19.8  70d  89
2025 06 13 01  21 58 59.072   -12 54 04.63  .17190 1.0982 114.6 19.8  70d  89
2025 06 13 02  21 59 20.748   -13 01 37.90  .17109 1.0977 114.6 19.8  70d  89
2025 06 13 03  21 59 42.647   -13 09 15.41  .17028 1.0973 114.6 19.8  70d  89
2025 06 13 04  22 00 04.770   -13 16 57.22  .16947 1.0969 114.6 19.7  70d  89
2025 06 13 05  22 00 27.122   -13 24 43.38  .16866 1.0964 114.6 19.7  70d  89
2025 06 13 06  22 00 49.707   -13 32 33.94  .16785 1.0960 114.6 19.7  70d  89
2025 06 13 07  22 01 12.528   -13 40 28.95  .16705 1.0956 114.6 19.7  70d  89
2025 06 13 08  22 01 35.589   -13 48 28.46  .16624 1.0951 114.6 19.7  70d  89
2025 06 13 09  22 01 58.893   -13 56 32.54  .16544 1.0947 114.6 19.7  70d  89
2025 06 13 10  22 02 22.445   -14 04 41.24  .16464 1.0942 114.6 19.7  70d  89
2025 06 13 11  22 02 46.248   -14 12 54.61  .16384 1.0938 114.6 19.7  70d  89
2025 06 13 12  22 03 10.307   -14 21 12.71  .16304 1.0934 114.6 19.7  70d  89
2025 06 13 13  22 03 34.626   -14 29 35.59  .16224 1.0929 114.5 19.6  70d  89
2025 06 13 14  22 03 59.208   -14 38 03.32  .16144 1.0925 114.5 19.6  70d  89
2025 06 13 15  22 04 24.059   -14 46 35.95  .16065 1.0921 114.5 19.6  70d  89
2025 06 13 16  22 04 49.183   -14 55 13.54  .15986 1.0916 114.5 19.6  70d  89
2025 06 13 17  22 05 14.584   -15 03 56.16  .15906 1.0912 114.5 19.6  70d  89
2025 06 13 18  22 05 40.267   -15 12 43.86  .15827 1.0907 114.5 19.6  70d  89
2025 06 13 19  22 06 06.236   -15 21 36.70  .15748 1.0903 114.5 19.6  70d  89
2025 06 13 20  22 06 32.496   -15 30 34.74  .15670 1.0899 114.5 19.6  70d  89
2025 06 13 21  22 06 59.053   -15 39 38.06  .15591 1.0894 114.5 19.6  70d  89
2025 06 13 22  22 07 25.911   -15 48 46.71  .15513 1.0890 114.5 19.6  70d  89
2025 06 13 23  22 07 53.076   -15 58 00.75  .15434 1.0885 114.4 19.5  70d  89
2025 06 14 00  22 08 20.552   -16 07 20.26  .15356 1.0881 114.4 19.5  70d  89